Location: Demmingen
(48.6757°N, 10.4375°E)
Time: 20:03:08
(UTC+00:00)

IRAS Rocket - Pass Details

Date: 23 May 2024
Orbit: 846 x 877 km, 100.1° (Epoch: 23 June)

Event Time Altitude Azimuth Distance (km) Brightness Sun altitude
Rises 02:14:43 0° 16° (NNE) 3,438 8.7 -9.9°
Reaches altitude 10° 02:17:07 10° 17° (NNE) 2,494 7.8 -9.7°
Maximum altitude 02:22:39 88° 107° (ESE) 857 4.3 -9.0°
Drops below altitude 10° 02:28:08 10° 198° (SSW) 2,464 6.1 -8.4°
Enters shadow 02:28:52 - 198° (SSW) 2,753 6.3 -8.3°
